When you browse on this site, cookies collect data to enhance your experience and personalize the content and advertising you see.
Visit our Privacy Policy to learn more. By continuing to use the site, you agree to this use of cookies and data.
  • In United Kingdom
  • List of Countries
  • For 7 days
  • Water Temperature
  • Satellite Maps
  • Weather Map
  • Weather Widgets
  • user-avatar
    Login

    Hourly Weather Dankon

    Today, 24 July, Wednesday

    Time Temperature Precipitation Wind Pressure Humidity
    00:00 +21°C° 0.1 mm 0 mps 699 mmHg 99%
    01:00 +21°C° 0 mm 0 mps 699 mmHg 99%
    02:00 +21°C° 0.9 mm 0 mps 698 mmHg 99%
    03:00 +21°C° 0.9 mm 0 mps 698 mmHg 99%
    04:00 +21°C° 0.9 mm 0 mps 698 mmHg 99%
    05:00 +21°C° 2 mm 0 mps 698 mmHg 99%
    06:00 +21°C° 2 mm 0 mps 698 mmHg 99%
    07:00 +24°C° 0 mm 1 mps 699 mmHg 99%
    08:00 +24°C° 1 mm 1 mps 699 mmHg 99%
    09:00 +22°C° 1 mm 0 mps 699 mmHg 99%
    10:00 +22°C° 1 mm 0 mps 700 mmHg 99%
    11:00 +24°C° 0.3 mm 1 mps 699 mmHg 98%
    12:00 +25°C° 0.3 mm 1 mps 699 mmHg 97%
    13:00 +25°C° 0.3 mm 1 mps 699 mmHg 96%
    14:00 +25°C° 0.4 mm 1 mps 699 mmHg 95%
    15:00 +25°C° 0.4 mm 1 mps 698 mmHg 94%
    16:00 +25°C° 0.4 mm 1 mps 698 mmHg 94%
    17:00 +25°C° 0.1 mm 1 mps 698 mmHg 95%
    18:00 +24°C° 0.1 mm 1 mps 698 mmHg 96%
    19:00 +22°C° 0.1 mm 0 mps 698 mmHg 98%
    20:00 +22°C° 0 mm 0 mps 699 mmHg 98%
    21:00 +21°C° 0 mm 0 mps 700 mmHg 98%
    22:00 +21°C° 0 mm 0 mps 700 mmHg 98%
    23:00 +21°C° 0 mm 0 mps 700 mmHg 98%

    Tomorrow, 25 July, Thursday

    Time Temperature Precipitation Wind Pressure Humidity
    00:00 +21°C° 0 mm 0 mps 700 mmHg 98%
    01:00 +21°C° 0 mm 0 mps 700 mmHg 98%
    02:00 +21°C° 0 mm 0 mps 700 mmHg 98%
    03:00 +21°C° 0 mm 0 mps 700 mmHg 98%
    04:00 +21°C° 0 mm 0 mps 699 mmHg 98%
    05:00 +21°C° 0 mm 0 mps 700 mmHg 98%
    06:00 +21°C° 0 mm 0 mps 700 mmHg 97%
    07:00 +21°C° 0 mm 0 mps 700 mmHg 97%
    08:00 +22°C° 0 mm 0 mps 700 mmHg 96%
    09:00 +22°C° 0 mm 0 mps 701 mmHg 94%
    10:00 +23°C° 0 mm 0 mps 701 mmHg 93%
    11:00 +23°C° 0.4 mm 0 mps 701 mmHg 91%
    12:00 +26°C° 0.4 mm 1 mps 700 mmHg 90%
    13:00 +27°C° 0.4 mm 1 mps 700 mmHg 89%
    14:00 +27°C° 0.9 mm 1 mps 699 mmHg 88%
    15:00 +27°C° 0.9 mm 1 mps 699 mmHg 88%
    16:00 +27°C° 0.9 mm 1 mps 698 mmHg 87%
    17:00 +26°C° 0.3 mm 1 mps 699 mmHg 90%
    18:00 +25°C° 0.3 mm 1 mps 699 mmHg 93%
    19:00 +22°C° 0.3 mm 0 mps 699 mmHg 96%
    20:00 +22°C° 0 mm 0 mps 699 mmHg 97%
    21:00 +22°C° 0 mm 0 mps 700 mmHg 98%
    22:00 +21°C° 0 mm 0 mps 701 mmHg 98%
    23:00 +21°C° 0 mm 0 mps 700 mmHg 98%

    Day after tomorrow, 26 July, Friday

    Time Temperature Precipitation Wind Pressure Humidity
    00:00 +21°C° 0 mm 0 mps 700 mmHg 98%
    01:00 +21°C° 0 mm 0 mps 700 mmHg 99%
    02:00 +21°C° 0 mm 0 mps 700 mmHg 98%
    03:00 +21°C° 0 mm 0 mps 699 mmHg 98%
    04:00 +21°C° 0 mm 0 mps 699 mmHg 98%
    05:00 +21°C° 0 mm 0 mps 699 mmHg 97%
    06:00 +21°C° 0 mm 0 mps 700 mmHg 97%
    07:00 +22°C° 0 mm 0 mps 700 mmHg 96%
    08:00 +22°C° 0.2 mm 0 mps 700 mmHg 95%
    09:00 +23°C° 0.2 mm 0 mps 700 mmHg 94%
    10:00 +23°C° 0.2 mm 0 mps 701 mmHg 93%
    11:00 +27°C° 0.7 mm 1 mps 700 mmHg 87%
    12:00 +28°C° 0.7 mm 1 mps 700 mmHg 81%
    13:00 +30°C° 0.7 mm 1 mps 699 mmHg 75%
    14:00 +29°C° 1 mm 1 mps 699 mmHg 78%
    15:00 +29°C° 1 mm 1 mps 698 mmHg 81%
    16:00 +29°C° 1 mm 1 mps 697 mmHg 85%
    17:00 +28°C° 0.8 mm 1 mps 697 mmHg 89%
    18:00 +26°C° 0.8 mm 1 mps 698 mmHg 93%
    19:00 +25°C° 0.8 mm 1 mps 698 mmHg 97%
    20:00 +22°C° 0 mm 0 mps 698 mmHg 98%
    21:00 +22°C° 0 mm 0 mps 699 mmHg 98%
    22:00 +21°C° 0 mm 0 mps 700 mmHg 98%
    23:00 +21°C° 0 mm 0 mps 699 mmHg 98%

    27 July, Saturday

    Time Temperature Precipitation Wind Pressure Humidity
    00:00 +21°C° 0 mm 0 mps 699 mmHg 98%
    01:00 +21°C° 0 mm 0 mps 699 mmHg 99%
    02:00 +21°C° 0 mm 0 mps 699 mmHg 99%
    03:00 +20°C° 0 mm 0 mps 699 mmHg 99%
    04:00 +20°C° 0 mm 0 mps 698 mmHg 99%
    05:00 +21°C° 0 mm 0 mps 699 mmHg 98%
    06:00 +21°C° 0 mm 0 mps 699 mmHg 98%
    07:00 +21°C° 0 mm 0 mps 699 mmHg 98%
    08:00 +24°C° 0 mm 0 mps 700 mmHg 85%
    09:00 +27°C° 0 mm 0 mps 700 mmHg 72%
    10:00 +31°C° 0 mm 1 mps 701 mmHg 59%
    11:00 +31°C° 0.5 mm 1 mps 700 mmHg 62%
    12:00 +31°C° 0.5 mm 1 mps 700 mmHg 65%
    13:00 +31°C° 0.5 mm 1 mps 699 mmHg 68%
    14:00 +31°C° 1.2 mm 1 mps 698 mmHg 73%
    15:00 +30°C° 1.2 mm 1 mps 698 mmHg 78%
    16:00 +29°C° 1.2 mm 1 mps 697 mmHg 83%
    17:00 +28°C° 0.4 mm 1 mps 697 mmHg 87%
    18:00 +27°C° 0.4 mm 1 mps 697 mmHg 91%
    19:00 +23°C° 0.4 mm 0 mps 698 mmHg 95%
    20:00 +23°C° 0 mm 0 mps 698 mmHg 96%
    21:00 +22°C° 0 mm 0 mps 699 mmHg 97%
    22:00 +22°C° 0 mm 0 mps 700 mmHg 97%
    23:00 +22°C° 0 mm 0 mps 699 mmHg 98%

    28 July, Sunday

    Time Temperature Precipitation Wind Pressure Humidity
    00:00 +21°C° 0 mm 0 mps 699 mmHg 98%
    01:00 +21°C° 0 mm 0 mps 699 mmHg 98%
    02:00 +21°C° 0 mm 0 mps 699 mmHg 98%
    03:00 +21°C° 0 mm 0 mps 699 mmHg 98%
    04:00 +21°C° 0 mm 0 mps 699 mmHg 98%
    05:00 +21°C° 0 mm 0 mps 699 mmHg 97%
    06:00 +22°C° 0 mm 0 mps 699 mmHg 96%
    07:00 +22°C° 0 mm 0 mps 699 mmHg 95%
    08:00 +25°C° 0 mm 0 mps 700 mmHg 83%
    09:00 +27°C° 0 mm 0 mps 700 mmHg 72%
    10:00 +30°C° 0 mm 0 mps 701 mmHg 60%
    11:00 +32°C° 0.3 mm 1 mps 700 mmHg 60%
    12:00 +33°C° 0.3 mm 1 mps 700 mmHg 61%
    13:00 +34°C° 0.3 mm 1 mps 699 mmHg 61%
    14:00 +32°C° 1.3 mm 1 mps 699 mmHg 70%
    15:00 +31°C° 1.3 mm 1 mps 698 mmHg 78%
    16:00 +30°C° 1.3 mm 1 mps 697 mmHg 87%
    17:00 +28°C° 0.4 mm 1 mps 697 mmHg 90%
    18:00 +27°C° 0.4 mm 1 mps 697 mmHg 93%
    19:00 +26°C° 0.4 mm 1 mps 698 mmHg 96%
    20:00 +23°C° 0.2 mm 0 mps 698 mmHg 96%
    21:00 +23°C° 0.2 mm 0 mps 699 mmHg 96%
    22:00 +23°C° 0.2 mm 0 mps 700 mmHg 97%
    23:00 +22°C° 0.6 mm 0 mps 699 mmHg 97%

    29 July, Monday

    Time Temperature Precipitation Wind Pressure Humidity
    00:00 +22°C° 0.6 mm 0 mps 699 mmHg 98%
    01:00 +22°C° 0.6 mm 0 mps 699 mmHg 98%
    02:00 +22°C° 2 mm 0 mps 699 mmHg 98%
    03:00 +22°C° 2 mm 0 mps 699 mmHg 98%
    04:00 +21°C° 2 mm 0 mps 699 mmHg 99%
    05:00 +22°C° 0.4 mm 0 mps 699 mmHg 98%
    06:00 +22°C° 0.4 mm 0 mps 699 mmHg 98%
    07:00 +22°C° 0.4 mm 0 mps 700 mmHg 98%
    08:00 +24°C° 0 mm 0 mps 700 mmHg 89%
    09:00 +26°C° 0 mm 0 mps 700 mmHg 80%
    10:00 +28°C° 0 mm 0 mps 701 mmHg 71%
    11:00 +29°C° 0.6 mm 0 mps 700 mmHg 70%
    12:00 +30°C° 0.6 mm 0 mps 700 mmHg 68%
    13:00 +30°C° 0.6 mm 0 mps 699 mmHg 66%
    14:00 +31°C° 0.6 mm 0 mps 699 mmHg 65%
    15:00 +31°C° 0.6 mm 0 mps 698 mmHg 64%
    16:00 +31°C° 0.6 mm 0 mps 697 mmHg 63%
    17:00 +29°C° 0.4 mm 0 mps 697 mmHg 73%
    18:00 +26°C° 0.4 mm 0 mps 697 mmHg 83%
    19:00 +26°C° 0.4 mm 1 mps 697 mmHg 93%
    20:00 +26°C° 0.6 mm 1 mps 698 mmHg 94%
    21:00 +23°C° 0.6 mm 0 mps 699 mmHg 96%
    22:00 +22°C° 0.6 mm 0 mps 699 mmHg 97%
    23:00 +22°C° 0.8 mm 0 mps 699 mmHg 97%
    Show more